MAU239 FMEE-FIMP

Flight info

Callsign MAU239
Flight time 0h 29m
Altitude 15000
Route EPTEK2N EPTEK EPTEK2E
Aircraft A359/H-SDE2E3GHIJ1J3J4J5LM1ORWXY/LB1D1

Departure

Time 2026-04-18 05:29
Airport Roland Garros Airport (FMEE)

Arrival

Time 2026-04-18 05:58
Airport Sir Seewoosagur Ramgoolam International Airport (FIMP)
Time Latitude Longitude Altitude Speed Heading
2026-04-18 04:59 -20.89082 55.51230 81 ft 0 kts 207°
2026-04-18 05:20 -20.89074 55.51234 86 ft 4 kts 207°
2026-04-18 05:20 -20.89049 55.51248 81 ft 4 kts 207°
2026-04-18 05:20 -20.89027 55.51261 81 ft 4 kts 223°
2026-04-18 05:20 -20.89016 55.51283 81 ft 4 kts 275°
2026-04-18 05:21 -20.89022 55.51308 86 ft 2 kts 296°
2026-04-18 05:21 -20.89033 55.51330 81 ft 4 kts 296°
2026-04-18 05:21 -20.89043 55.51352 81 ft 1 kts 296°
2026-04-18 05:24 -20.89035 55.51336 85 ft 7 kts 296°
2026-04-18 05:24 -20.88995 55.51250 86 ft 17 kts 296°
2026-04-18 05:25 -20.88939 55.51186 86 ft 9 kts 339°
2026-04-18 05:25 -20.88928 55.51182 81 ft 0 kts 342°
2026-04-18 05:26 -20.88913 55.51177 81 ft 6 kts 342°
2026-04-18 05:26 -20.88838 55.51150 62 ft 19 kts 341°
2026-04-18 05:26 -20.88723 55.51059 67 ft 21 kts 298°
2026-04-18 05:27 -20.88649 55.50902 55 ft 26 kts 297°
2026-04-18 05:27 -20.88562 55.50719 51 ft 29 kts 296°
2026-04-18 05:27 -20.88470 55.50529 49 ft 20 kts 307°
2026-04-18 05:27 -20.88418 55.50449 55 ft 3 kts 237°
2026-04-18 05:28 -20.88432 55.50453 55 ft 2 kts 152°
2026-04-18 05:28 -20.88452 55.50485 55 ft 0 kts 117°
2026-04-18 05:28 -20.88463 55.50508 47 ft 23 kts 117°
2026-04-18 05:29 -20.88658 55.50922 57 ft 98 kts 117°
2026-04-18 05:29 -20.89062 55.51778 181 ft 149 kts 116°
2026-04-18 05:29 -20.89473 55.52786 875 ft 149 kts 103°
2026-04-18 05:29 -20.89296 55.53907 1388 ft 171 kts 59°
2026-04-18 05:30 -20.88389 55.54855 1701 ft 192 kts 39°
2026-04-18 05:30 -20.87332 55.55864 1923 ft 212 kts 46°
2026-04-18 05:30 -20.86312 55.57038 2388 ft 220 kts 50°
2026-04-18 05:30 -20.85278 55.58324 2689 ft 239 kts 51°
2026-04-18 05:31 -20.84196 55.59772 2979 ft 259 kts 52°
2026-04-18 05:31 -20.83067 55.61299 3648 ft 261 kts 52°
2026-04-18 05:31 -20.81947 55.62806 4456 ft 256 kts 50°
2026-04-18 05:31 -20.80873 55.64287 5240 ft 255 kts 53°
2026-04-18 05:32 -20.79776 55.65816 5746 ft 263 kts 51°
2026-04-18 05:32 -20.78623 55.67348 6370 ft 266 kts 50°
2026-04-18 05:32 -20.77425 55.68851 7018 ft 265 kts 48°
2026-04-18 05:32 -20.76196 55.70348 7498 ft 272 kts 49°
2026-04-18 05:33 -20.74982 55.71951 7928 ft 281 kts 51°
2026-04-18 05:33 -20.73767 55.73608 8484 ft 285 kts 51°
2026-04-18 05:33 -20.72530 55.75284 9073 ft 289 kts 51°
2026-04-18 05:33 -20.71270 55.76971 9649 ft 292 kts 50°
2026-04-18 05:34 -20.69990 55.78674 10215 ft 296 kts 50°
2026-04-18 05:34 -20.68673 55.80415 10530 ft 308 kts 49°
2026-04-18 05:34 -20.67298 55.82237 10770 ft 322 kts 50°
2026-04-18 05:34 -20.65864 55.84140 10967 ft 336 kts 50°
2026-04-18 05:35 -20.64380 55.86108 11321 ft 343 kts 50°
2026-04-18 05:35 -20.62878 55.88096 11800 ft 346 kts 49°
2026-04-18 05:35 -20.61375 55.90066 12276 ft 348 kts 47°
2026-04-18 05:35 -20.59726 55.91969 12763 ft 350 kts 44°
2026-04-18 05:36 -20.58030 55.93845 13242 ft 352 kts 44°
2026-04-18 05:36 -20.56328 55.95741 13714 ft 355 kts 44°
2026-04-18 05:36 -20.54624 55.97654 14154 ft 357 kts 44°
2026-04-18 05:36 -20.52911 55.99583 14537 ft 360 kts 44°
2026-04-18 05:37 -20.51189 56.01533 14888 ft 362 kts 45°
2026-04-18 05:37 -20.49466 56.03492 15045 ft 360 kts 45°
2026-04-18 05:37 -20.47765 56.05422 15074 ft 355 kts 45°
2026-04-18 05:37 -20.46076 56.07337 15073 ft 354 kts 45°
2026-04-18 05:38 -20.44388 56.09257 15075 ft 355 kts 45°
2026-04-18 05:38 -20.42925 56.11380 15072 ft 359 kts 60°
2026-04-18 05:38 -20.42190 56.13915 15078 ft 361 kts 82°
2026-04-18 05:38 -20.42092 56.16590 15077 ft 362 kts 88°
2026-04-18 05:39 -20.42122 56.19270 15071 ft 362 kts 89°
2026-04-18 05:39 -20.42156 56.21951 15072 ft 362 kts 89°
2026-04-18 05:39 -20.42186 56.24637 15072 ft 362 kts 89°
2026-04-18 05:39 -20.42210 56.27251 15080 ft 361 kts 89°
2026-04-18 05:40 -20.42230 56.29926 15077 ft 361 kts 88°
2026-04-18 05:40 -20.42244 56.32597 15073 ft 360 kts 88°
2026-04-18 05:40 -20.42258 56.35271 15075 ft 361 kts 88°
2026-04-18 05:40 -20.42271 56.37949 15075 ft 361 kts 88°
2026-04-18 05:41 -20.42284 56.40628 15076 ft 361 kts 88°
2026-04-18 05:41 -20.42297 56.43307 15076 ft 361 kts 88°
2026-04-18 05:41 -20.42309 56.45985 15075 ft 361 kts 88°
2026-04-18 05:41 -20.42320 56.48662 15074 ft 361 kts 88°
2026-04-18 05:42 -20.42330 56.51337 15071 ft 361 kts 88°
2026-04-18 05:42 -20.42340 56.54014 14889 ft 361 kts 88°
2026-04-18 05:42 -20.42351 56.56697 14665 ft 361 kts 88°
2026-04-18 05:42 -20.42360 56.59376 14433 ft 361 kts 89°
2026-04-18 05:43 -20.42370 56.62047 14214 ft 359 kts 88°
2026-04-18 05:43 -20.42379 56.64707 14000 ft 358 kts 88°
2026-04-18 05:43 -20.42387 56.67356 13756 ft 357 kts 88°
2026-04-18 05:43 -20.42394 56.69999 13496 ft 356 kts 88°
2026-04-18 05:44 -20.42401 56.72637 13238 ft 355 kts 88°
2026-04-18 05:44 -20.42408 56.75257 12984 ft 353 kts 88°
2026-04-18 05:44 -20.42414 56.77854 12713 ft 346 kts 88°
2026-04-18 05:44 -20.42420 56.80400 12316 ft 342 kts 89°
2026-04-18 05:45 -20.42426 56.82923 11890 ft 339 kts 89°
2026-04-18 05:45 -20.42431 56.85425 11460 ft 336 kts 88°
2026-04-18 05:45 -20.42434 56.87873 11269 ft 324 kts 89°
2026-04-18 05:45 -20.42440 56.90178 11131 ft 299 kts 89°
2026-04-18 05:46 -20.42447 56.92356 11012 ft 289 kts 89°
2026-04-18 05:46 -20.42451 56.94484 10733 ft 286 kts 89°
2026-04-18 05:46 -20.42455 56.96605 10416 ft 285 kts 89°
2026-04-18 05:46 -20.42458 56.98717 10099 ft 285 kts 89°
2026-04-18 05:47 -20.42462 57.00839 9797 ft 290 kts 89°
2026-04-18 05:47 -20.42465 57.03010 9572 ft 295 kts 89°
2026-04-18 05:47 -20.42467 57.05199 9243 ft 295 kts 89°
2026-04-18 05:47 -20.42467 57.07379 8830 ft 292 kts 89°
2026-04-18 05:48 -20.42468 57.09538 8495 ft 290 kts 89°
2026-04-18 05:48 -20.42467 57.11679 8182 ft 288 kts 89°
2026-04-18 05:48 -20.42468 57.13811 7863 ft 287 kts 90°
2026-04-18 05:48 -20.42468 57.15930 7545 ft 285 kts 90°
2026-04-18 05:49 -20.42470 57.18035 7237 ft 283 kts 90°
2026-04-18 05:49 -20.42473 57.20129 6927 ft 281 kts 90°
2026-04-18 05:49 -20.42473 57.22205 6613 ft 279 kts 89°
2026-04-18 05:49 -20.42464 57.24274 6279 ft 279 kts 88°
2026-04-18 05:50 -20.42107 57.26288 6104 ft 276 kts 67°
2026-04-18 05:50 -20.41215 57.28101 5978 ft 276 kts 59°
2026-04-18 05:50 -20.40216 57.29840 5708 ft 274 kts 58°
2026-04-18 05:50 -20.39215 57.31572 5498 ft 274 kts 58°
2026-04-18 05:51 -20.38211 57.33291 5369 ft 273 kts 58°
2026-04-18 05:51 -20.37219 57.34985 5308 ft 266 kts 58°
2026-04-18 05:51 -20.36279 57.36621 5204 ft 252 kts 58°
2026-04-18 05:51 -20.35453 57.38236 5038 ft 245 kts 66°
2026-04-18 05:52 -20.34831 57.39884 4906 ft 233 kts 69°
2026-04-18 05:52 -20.34287 57.41474 4809 ft 224 kts 70°
2026-04-18 05:52 -20.33771 57.43008 4712 ft 215 kts 70°
2026-04-18 05:52 -20.33271 57.44475 4530 ft 207 kts 69°
2026-04-18 05:53 -20.32869 57.45915 4332 ft 199 kts 86°
2026-04-18 05:53 -20.33025 57.47339 4220 ft 193 kts 107°
2026-04-18 05:53 -20.33565 57.48655 4177 ft 194 kts 116°
2026-04-18 05:53 -20.34186 57.49936 4093 ft 197 kts 115°
2026-04-18 05:54 -20.34802 57.51228 3920 ft 194 kts 115°
2026-04-18 05:54 -20.35404 57.52498 3677 ft 189 kts 115°
2026-04-18 05:54 -20.35988 57.53719 3391 ft 182 kts 115°
2026-04-18 05:54 -20.36550 57.54893 3092 ft 173 kts 115°
2026-04-18 05:55 -20.37083 57.56005 2812 ft 165 kts 115°
2026-04-18 05:55 -20.37599 57.57074 2559 ft 160 kts 115°
2026-04-18 05:55 -20.38104 57.58125 2323 ft 158 kts 114°
2026-04-18 05:55 -20.38600 57.59162 2072 ft 155 kts 113°
2026-04-18 05:56 -20.38916 57.59822 1918 ft 150 kts 114°
2026-04-18 05:56 -20.39387 57.60797 1683 ft 147 kts 113°
2026-04-18 05:56 -20.39859 57.61787 1465 ft 154 kts 114°
2026-04-18 05:56 -20.40364 57.62835 1232 ft 163 kts 115°
2026-04-18 05:57 -20.41596 57.65364 704 ft 167 kts 116°
2026-04-18 05:57 -20.42112 57.66461 398 ft 163 kts 115°
2026-04-18 05:57 -20.42454 57.67169 248 ft 155 kts 116°
2026-04-18 05:58 -20.42917 57.68130 203 ft 130 kts 116°
2026-04-18 05:58 -20.43266 57.68858 172 ft 91 kts 116°
2026-04-18 05:58 -20.43474 57.69317 143 ft 39 kts 112°
2026-04-18 05:58 -20.43559 57.69373 141 ft 10 kts 201°
2026-04-18 05:59 -20.43632 57.69333 149 ft 9 kts 217°
2026-04-18 05:59 -20.43650 57.69304 153 ft 7 kts 246°
2026-04-18 05:59 -20.43646 57.69241 160 ft 7 kts 292°
2026-04-18 05:59 -20.43629 57.69206 162 ft 4 kts 297°
2026-04-18 06:00 -20.43614 57.69174 165 ft 7 kts 297°
2026-04-18 06:00 -20.43587 57.69119 169 ft 8 kts 297°
2026-04-18 06:00 -20.43563 57.69068 173 ft 8 kts 297°
2026-04-18 06:00 -20.43537 57.69013 176 ft 9 kts 297°
2026-04-18 06:01 -20.43503 57.68942 178 ft 13 kts 296°
2026-04-18 06:01 -20.43457 57.68844 179 ft 17 kts 296°
2026-04-18 06:01 -20.43400 57.68722 182 ft 21 kts 297°
2026-04-18 06:01 -20.43332 57.68582 179 ft 22 kts 298°
2026-04-18 06:02 -20.43257 57.68434 191 ft 23 kts 297°
2026-04-18 06:02 -20.43181 57.68279 206 ft 23 kts 297°
2026-04-18 06:02 -20.43124 57.68152 205 ft 11 kts 278°
2026-04-18 06:02 -20.43149 57.68112 192 ft 6 kts 212°
2026-04-18 06:03 -20.43184 57.68078 195 ft 7 kts 231°
2026-04-18 06:03 -20.43221 57.68022 200 ft 11 kts 236°
2026-04-18 06:03 -20.43252 57.67970 200 ft 0 kts 237°
2026-04-18 06:04 -20.43255 57.67965 193 ft 0 kts 237°
2026-04-18 06:04 -20.43258 57.67961 193 ft 0 kts 237°
2026-04-18 06:04 -20.43260 57.67957 193 ft 0 kts 237°
2026-04-18 06:04 -20.43260 57.67956 193 ft 0 kts 237°